Location: Aletheia Temple Church
(32.7174°N, 97.2485°W)
Time: 14:58:41
(UTC+00:00)

Envisat - Visible Passes

Search period start: 07 October 2024 00:00
Search period end: 17 October 2024 00:00
Orbit: 762 x 764 km, 98.3° (Epoch: 07 October)

Date Brightness Start Highest point End Pass type
(mag) Time Alt. Az. Time Alt. Az. Time Alt. Az.
07 Oct 5.3 10:20:42 10° N 10:21:05 12° NNW 10:21:05 12° NNW visible
08 Oct 5.6 09:42:43 10° N 09:43:01 12° N 09:43:01 12° N visible
10 Oct 5.5 10:06:57 10° N 10:07:04 11° N 10:07:04 11° N visible
